Location: Antoign�
(47.0844°N, 0.1131°W)
Time: 02:40:25
(UTC+00:00)

Cosmos 2278 Rocket - Pass Details

Date: 03 March 2021
Orbit: 841 x 845 km, 71.0° (Epoch: 17 April)

Event Time Altitude Azimuth Distance (km) Brightness Sun altitude
Rises 18:39:01 0° 339° (NNW) 3,416 5.7 -9.3°
Reaches altitude 10° 18:42:37 10° 2° (N) 2,476 4.6 -9.9°
Maximum altitude 18:45:53 15° 37° (NE) 2,114 4.0 -10.5°
Enters shadow 18:48:37 11° 68° (ENE) 2,367 4.0 -10.9°
